[[{"header":{"parameterUnit":"m.s-1","parameterCategory":1,"la1":30.2991,"la2":30.254,"lo1":-89.0895,"lo2":-89.0444,"dy":0.0017,"dx":0.0017,"nx":28,"ny":28,"refTime":"2025-08-10T03:00:00:Z","depth":0,"parameterNumber":2,"parameterNumberName":"U-component_of_WINDS"},"data":[0,0,0,0,0,0,0,0,0,0,0,0,0,0,0,0,0,0,0,0,0,0,0,0,0,0,0,0,0,0,0,0,0,0,0,0,0,0,0,0,0,0,0,0,0,0,0,0,0,0,0,0,0,0,0,0,0,0,-3.199,-3.199,0,-3.1986,-3.1986,-3.1986,-3.1897,-3.1894,-3.1892,-3.189,-3.1888,-3.189,-3.1892,0,0,0,0,0,0,0,0,0,0,0,0,0,-3.1925,-3.1927,-3.199,-3.199,-3.199,-3.1986,-3.1986,-3.1986,-3.1897,-3.1894,-3.1892,-3.1889,-3.1888,-3.189,-3.1893,0,0,0,0,0,0,0,0,0,0,0,0,0,-3.1941,-3.1928,-3.199,-3.1945,-3.1941,-3.1986,-3.1986,-3.1986,-3.1898,-3.1894,-3.1891,-3.1888,-3.1887,-3.189,-3.1893,-3.1981,0,0,-3.1902,-3.1904,0,0,0,0,0,0,0,0,-3.194,-3.1943,-3.1952,-3.1949,-3.1944,-3.1938,-3.1962,-3.1984,-3.1899,-3.1914,-3.189,-3.1886,-3.1908,-3.1909,-3.1916,-3.1981,-3.1981,-3.1903,-3.1905,-3.1906,-3.1907,0,0,0,0,0,0,0,-3.1939,-3.1943,-3.1989,-3.1952,-3.1947,-3.1927,-3.1925,-3.1966,-3.1931,-3.1913,-3.1906,-3.1907,-3.1905,-3.1913,-3.1915,-3.1981,-3.1903,-3.1905,-3.1907,-3.1909,-3.2119,-3.2123,0,0,0,0,0,0,-3.1944,-3.1943,-3.1989,-3.1988,-3.1933,-3.193,-3.1929,-3.1944,-3.193,-3.1924,-3.191,-3.1903,-3.1909,-3.1912,-3.1915,-3.2017,-3.1906,-3.1909,-3.1911,-3.2115,-3.212,-3.2124,0,0,0,0,0,0,-3.1943,-3.1949,-3.1989,-3.1964,-3.1967,-3.1935,-3.1953,-3.1945,-3.1953,-3.1927,-3.1921,-3.1924,-3.1907,-3.191,-3.1965,-3.2016,-3.191,-3.1913,-3.2111,-3.2117,-3.2122,-3.2223,0,0,0,0,0,0,-3.1941,-3.1949,-3.1981,-3.1965,-3.1969,-3.2039,-3.1956,-3.1948,-3.1958,-3.1949,-3.1939,-3.1934,-3.1904,-3.1961,-3.1968,-3.2019,-3.1916,-3.2106,-3.2114,-3.212,-3.2215,-3.2232,-3.2246,0,0,0,0,0,-3.1939,-3.201,-3.1983,-3.1989,-3.2008,-3.2042,-3.2044,-3.2007,-3.1963,-3.1996,-3.1979,-3.1935,-3.2009,-3.1967,-3.1975,-3.2027,-3.2103,-3.2112,-3.212,-3.2209,-3.2229,-3.2246,0,0,0,0,0,0,-3.2034,-3.2007,-3.1977,-3.2045,-3.2046,-3.2027,-3.2067,-3.2029,-3.2044,-3.2035,-3.1989,-3.1988,-3.205,-3.2044,-3.1997,-3.2112,-3.2048,-3.2059,-3.2114,-3.2132,-3.2147,-3.2148,-3.1918,0,0,0,0,0,-3.2063,-3.2091,-3.2066,-3.2129,-3.2131,-3.2099,-3.2112,-3.2084,-3.2084,-3.2084,-3.2071,-3.2074,-3.2098,-3.2115,-3.2135,-3.2214,-3.2211,-3.2254,-3.2269,-3.2282,-3.2291,-3.2333,-3.2352,-3.2151,-3.2151,-3.2151,0,0,-3.2122,-3.2111,-3.2132,-3.2148,-3.2145,-3.2177,-3.21,-3.2136,-3.2159,-3.209,-3.214,-3.2132,-3.2132,-3.2199,-3.2228,-3.2196,-3.2346,-3.2292,-3.2303,-3.2305,-3.2344,-3.2363,-3.238,-3.2157,-3.2156,-3.2155,0,0,-3.2247,-3.2241,-3.2293,-3.2292,-3.2289,-3.2268,-3.228,-3.2267,-3.2258,-3.2308,-3.2257,-3.2284,-3.2326,-3.2329,-3.2335,-3.2463,-3.2422,-3.2471,-3.255,-3.2592,-3.2608,-3.2622,-3.2668,-3.2685,-3.248,-3.248,-3.2481,0,-3.2322,-3.2366,-3.2324,-3.2364,-3.2373,-3.2311,-3.2363,-3.2365,-3.237,-3.2378,-3.2341,-3.2393,-3.2389,-3.2456,-3.2487,-3.2495,-3.2509,-3.2471,-3.2609,-3.2622,-3.2634,-3.2678,-3.2695,-3.2486,-3.2486,-3.2485,-3.2484,0,-3.2459,-3.249,-3.2532,-3.2538,-3.2551,-3.2598,-3.2564,-3.2583,-3.2554,-3.2537,-3.259,-3.2582,-3.26,-3.2614,-3.2586,-3.2679,-3.2659,-3.2616,-3.2552,-3.266,-3.27,-3.2717,-3.2495,-3.2493,-3.2491,-3.2489,0,0,-3.2642,-3.2624,-3.2641,-3.2643,-3.2635,-3.266,-3.2704,-3.2721,-3.2739,-3.2744,-3.2781,-3.2818,-3.2779,-3.2787,-3.2759,-3.2796,-3.2898,-3.2749,-3.2748,-3.2777,-3.3,-3.3033,-3.3052,-3.2871,-3.2874,-3.2877,-3.3001,0,-3.2763,-3.2836,-3.28,-3.2878,-3.2907,-3.2849,-3.2888,-3.2888,-3.2874,-3.2897,-3.2882,-3.2909,-3.2855,-3.286,-3.2893,-3.2878,-3.2942,-3.2869,-3.2906,-3.2908,-3.2908,-3.3073,-3.3107,-3.3224,-3.3016,-3.3019,-3.302,0,-3.2914,-3.2925,-3.3006,-3.2994,-3.3005,-3.304,-3.3053,-3.3076,-3.3076,-3.3063,-3.3073,-3.3036,-3.308,-3.3016,-3.3076,-3.3027,-3.3041,-3.3036,-3.304,-3.3042,-3.2971,-3.3081,-3.3261,-3.3279,-3.3045,-3.3043,-3.3041,0,-3.304,-3.3076,-3.3129,-3.3132,-3.312,-3.3146,-3.3142,-3.3139,-3.3152,-3.3164,-3.3172,-3.319,-3.32,-3.3215,-3.3185,-3.3141,-3.325,-3.3184,-3.3242,-3.3243,-3.3267,-3.3266,-3.3453,-3.3276,-3.3275,-3.3275,-3.3275,0,-3.3179,-3.3231,-3.3186,-3.3218,-3.3275,-3.3234,-3.3292,-3.3282,-3.328,-3.331,-3.3261,-3.3292,-3.325,-3.3277,-3.3254,-3.3308,-3.3312,-3.3304,-3.3297,-3.3309,-3.331,-3.3317,-3.3308,-3.328,-3.3279,-3.3278,-3.3277,0,-3.333,-3.3302,-3.3356,-3.3339,-3.3337,-3.3379,-3.3366,-3.3396,-3.3378,-3.3418,-3.3425,-3.3398,-3.3427,-3.3398,-3.3426,-3.341,-3.3483,-3.3464,-3.3483,-3.3478,-3.3538,-3.3533,-3.3735,-3.376,-3.3567,-3.3569,-3.3571,0,-3.3421,-3.3459,-3.3447,-3.3463,-3.3462,-3.349,-3.3503,-3.3465,-3.348,-3.3484,-3.3514,-3.3539,-3.3556,-3.3605,-3.3589,-3.361,-3.3592,-3.3661,-3.3594,-3.3605,-3.3593,-3.3592,-3.3596,-3.3675,-3.3677,-3.3679,-3.3681,0,-3.3585,-3.3569,-3.3589,-3.3604,-3.3621,-3.3632,-3.3639,-3.3656,-3.3616,-3.3637,-3.3665,-3.3679,-3.3707,-3.3732,-3.3748,-3.3745,-3.3708,-3.3702,-3.3717,-3.3728,-3.3738,-3.3734,-3.352,-3.3697,-3.3696,-3.3694,-3.3694,-3.3693,-3.3708,-3.374,-3.3736,-3.3761,-3.3762,-3.377,-3.3798,-3.3784,-3.3806,-3.3825,-3.3802,-3.3837,-3.3837,-3.3855,-3.3857,-3.3885,-3.3856,-3.3877,-3.3882,-3.3888,-3.3897,-3.3733,-3.3888,-3.3887,-3.3887,-3.3886,-3.3886,0,-3.387,-3.3865,-3.3888,-3.3899,-3.3919,-3.388,-3.3886,-3.3905,-3.3937,-3.394,-3.3958,-3.3991,-3.4016,-3.4002,-3.4024,-3.4049,-3.4032,-3.4056,-3.4054,-3.4054,-3.3922,-3.3907,-3.4069,-3.4069,-3.4069,-3.4069,-3.4069,-3.4069,-3.3956,-3.4008,-3.3992,-3.4045,-3.404,-3.4073,-3.408,-3.4088,-3.409,-3.4129,-3.4149,-3.4139,-3.4136,-3.4157,-3.4179,-3.4174,-3.4185,-3.4215,-3.4204,-3.4081,-3.4063,-3.4046,-3.4032,-3.4217,-3.4218,-3.4334,-3.4335,-3.4336]},{"header":{"parameterUnit":"m.s-1","parameterCategory":1,"la1":30.2991,"la2":30.254,"lo1":-89.0895,"lo2":-89.0444,"dy":0.0017,"dx":0.0017,"nx":28,"ny":28,"refTime":"2025-08-10T03:00:00:Z","depth":0,"parameterNumber":3,"parameterNumberName":"V-component_of_WINDS"},"data":[0,0,0,0,0,0,0,0,0,0,0,0,0,0,0,0,0,0,0,0,0,0,0,0,0,0,0,0,0,0,0,0,0,0,0,0,0,0,0,0,0,0,0,0,0,0,0,0,0,0,0,0,0,0,0,0,0,0,1.0156,1.0156,0,1.0149,1.0149,1.0149,1.0185,1.0186,1.0187,1.0188,1.0177,1.0176,1.0175,0,0,0,0,0,0,0,0,0,0,0,0,0,1.0196,1.0195,1.0156,1.0156,1.0156,1.015,1.0149,1.0149,1.0185,1.0186,1.0187,1.0189,1.0178,1.0176,1.0175,0,0,0,0,0,0,0,0,0,0,0,0,0,1.0183,1.0194,1.0156,1.0173,1.0174,1.015,1.0149,1.0149,1.0185,1.0186,1.0188,1.0189,1.0178,1.0176,1.0175,1.0132,0,0,1.0169,1.0168,0,0,0,0,0,0,0,0,1.0183,1.0181,1.0171,1.0172,1.0173,1.017,1.016,1.0143,1.0184,1.0181,1.0188,1.019,1.0173,1.0172,1.0167,1.0131,1.0131,1.0169,1.0168,1.0167,1.0166,0,0,0,0,0,0,0,1.0184,1.0182,1.0153,1.017,1.0172,1.018,1.018,1.0157,1.0168,1.0181,1.0184,1.0183,1.0174,1.0169,1.0167,1.0131,1.0169,1.0167,1.0166,1.0165,1.0058,1.0057,0,0,0,0,0,0,1.0183,1.0182,1.0154,1.0153,1.0182,1.0178,1.0178,1.0169,1.0169,1.017,1.0181,1.0184,1.0171,1.0169,1.0167,1.0116,1.0167,1.0165,1.0164,1.006,1.0058,1.0056,0,0,0,0,0,0,1.0184,1.018,1.0154,1.0168,1.0166,1.0175,1.0166,1.0168,1.0163,1.0169,1.0171,1.0174,1.0172,1.017,1.014,1.0116,1.0164,1.0162,1.0062,1.006,1.0057,1.0014,0,0,0,0,0,0,1.0185,1.0181,1.0165,1.0168,1.0165,1.0128,1.0164,1.0167,1.016,1.0164,1.0162,1.0163,1.0173,1.0143,1.0138,1.0114,1.0161,1.0064,1.0061,1.0058,1.0017,1.001,1.0004,0,0,0,0,0,1.0186,1.0152,1.0164,1.0161,1.0146,1.0127,1.0125,1.0138,1.0158,1.0142,1.0146,1.0163,1.012,1.014,1.0135,1.011,1.0066,1.0062,1.0058,1.002,1.0011,1.0004,0,0,0,0,0,0,1.0145,1.0153,1.0166,1.0132,1.0129,1.0133,1.0113,1.0129,1.0118,1.0122,1.0138,1.0137,1.0105,1.0105,1.0127,1.0068,1.0096,1.0091,1.0069,1.006,1.0054,1.0053,1.0159,0,0,0,0,0,1.0133,1.0118,1.0125,1.0094,1.0092,1.0103,1.0095,1.0106,1.0102,1.01,1.0102,1.0097,1.0082,1.0071,1.0058,1.0018,1.0017,0.9998,0.9992,0.9986,0.9981,0.9958,0.9949,1.0044,1.0044,1.0044,0,0,1.0105,1.0108,1.0097,1.0086,1.0085,1.0067,1.0101,1.0082,1.0069,1.0097,1.0069,1.0071,1.0066,1.0031,1.0015,1.0029,0.9955,0.9981,0.9977,0.9974,0.9953,0.9944,0.9936,1.0041,1.0041,1.0042,0,0,1.0047,1.0048,1.0022,1.0021,1.0018,1.0026,1.002,1.0022,1.0024,0.9997,1.0018,1.0002,0.9976,0.9971,0.9966,0.9906,0.9921,0.9901,0.9865,0.9843,0.9835,0.9829,0.9806,0.9797,0.9897,0.9897,0.9897,0,1.0013,0.9989,1.0007,0.9986,0.998,1.0007,0.998,0.9977,0.9969,0.9964,0.9981,0.9949,0.9947,0.9911,0.9896,0.9892,0.9884,0.9901,0.9835,0.9829,0.9823,0.9801,0.9792,0.9894,0.9894,0.9895,0.9895,0,0.9947,0.993,0.9909,0.9903,0.9895,0.9871,0.9884,0.9873,0.9885,0.989,0.9862,0.9861,0.9848,0.9841,0.9852,0.9805,0.9814,0.9833,0.9861,0.9811,0.9791,0.9783,0.989,0.9891,0.9892,0.9893,0,0,0.986,0.9865,0.9857,0.9854,0.9854,0.9841,0.9818,0.9806,0.9796,0.979,0.977,0.9748,0.9766,0.9759,0.977,0.9751,0.9701,0.9772,0.9772,0.9757,0.9649,0.9633,0.9623,0.9713,0.9711,0.971,0.9648,0,0.9802,0.9764,0.9779,0.9739,0.9723,0.9749,0.9728,0.9725,0.973,0.9716,0.9721,0.9704,0.9729,0.9725,0.9708,0.9711,0.968,0.9716,0.9692,0.9691,0.969,0.9613,0.9596,0.9538,0.9641,0.9639,0.9639,0,0.9728,0.9721,0.9679,0.9682,0.9675,0.9657,0.9647,0.9634,0.9631,0.9636,0.9629,0.9644,0.962,0.965,0.9617,0.9641,0.9633,0.9633,0.9631,0.9627,0.966,0.9605,0.952,0.951,0.9627,0.9627,0.9628,0,0.9667,0.9647,0.9619,0.9616,0.9619,0.9605,0.9605,0.9604,0.9596,0.9587,0.9581,0.957,0.9563,0.9553,0.9563,0.9585,0.9528,0.9559,0.9529,0.9529,0.9514,0.9514,0.9424,0.9512,0.9512,0.9512,0.9512,0,0.9598,0.9571,0.9591,0.9574,0.9544,0.9562,0.9532,0.9535,0.9534,0.9516,0.9538,0.9521,0.9538,0.9522,0.9531,0.9501,0.9498,0.9499,0.9501,0.9496,0.9496,0.9489,0.9492,0.951,0.951,0.9511,0.9511,0,0.9524,0.9536,0.9508,0.9513,0.9514,0.9492,0.9496,0.9479,0.9486,0.9464,0.946,0.947,0.9452,0.9463,0.9445,0.9451,0.9411,0.942,0.9412,0.9414,0.9382,0.9384,0.9283,0.927,0.9368,0.9367,0.9366,0,0.9478,0.9458,0.9462,0.9453,0.9452,0.9437,0.9429,0.9446,0.9436,0.9431,0.9415,0.94,0.9388,0.9359,0.9364,0.935,0.9357,0.9323,0.9355,0.935,0.9354,0.9354,0.9352,0.9315,0.9314,0.9313,0.9312,0,0.9395,0.9403,0.9391,0.9382,0.9372,0.9365,0.936,0.935,0.9368,0.9356,0.9339,0.933,0.9312,0.9296,0.9285,0.9283,0.93,0.9303,0.9295,0.9288,0.9283,0.9283,0.9392,0.9304,0.9305,0.9306,0.9306,0.9306,0.9333,0.9316,0.9316,0.9302,0.93,0.9295,0.9279,0.9285,0.9272,0.9259,0.927,0.9249,0.9246,0.9233,0.9229,0.9213,0.9226,0.9215,0.9212,0.9208,0.9203,0.9288,0.9211,0.9211,0.9211,0.9211,0.9212,0,0.9249,0.9251,0.9238,0.9231,0.9219,0.9239,0.9234,0.9222,0.9204,0.9201,0.919,0.917,0.9154,0.9158,0.9144,0.913,0.9137,0.9125,0.9125,0.9125,0.9192,0.92,0.912,0.912,0.912,0.912,0.912,0.912,0.9204,0.9177,0.9184,0.9155,0.9157,0.9138,0.9133,0.9128,0.9125,0.9102,0.909,0.9093,0.9092,0.9079,0.9065,0.9066,0.9059,0.9044,0.9048,0.9111,0.912,0.9129,0.9136,0.9043,0.9043,0.8982,0.8981,0.8981]}]]